FDX221 KMIA-KJFK

Flight info

Callsign FDX221
Flight time 2h 31m
Altitude 35000
Route FOLZZ3 ALYRA PELCN Y309 FLRDA SAGGY CHIEZ Q161 KALDA Q108 SIE CAMRN5
Aircraft B77L/H-SDE1E2E3FGHIJ2J3J4J5M1RWXY/LB1D1

Departure

Time 2026-05-04 14:07
Airport Miami International Airport (KMIA)

Arrival

Time 2026-05-04 16:38
Airport John F. Kennedy International Airport (KJFK)
Time Latitude Longitude Altitude Speed Heading
2026-05-04 13:22 25.80510 -80.29451 21 ft 0 kts 359°
2026-05-04 13:58 25.80465 -80.29448 21 ft 4 kts 355°
2026-05-04 13:58 25.80432 -80.29425 20 ft 4 kts 275°
2026-05-04 13:58 25.80432 -80.29396 25 ft 3 kts 267°
2026-05-04 13:59 25.80432 -80.29393 21 ft 0 kts 268°
2026-05-04 14:02 25.80432 -80.29400 21 ft 4 kts 268°
2026-05-04 14:02 25.80430 -80.29464 20 ft 11 kts 267°
2026-05-04 14:02 25.80426 -80.29551 25 ft 11 kts 267°
2026-05-04 14:03 25.80422 -80.29640 23 ft 11 kts 267°
2026-05-04 14:03 25.80418 -80.29728 24 ft 11 kts 267°
2026-05-04 14:03 25.80415 -80.29817 25 ft 11 kts 268°
2026-05-04 14:03 25.80411 -80.29907 22 ft 12 kts 267°
2026-05-04 14:04 25.80351 -80.30058 25 ft 12 kts 189°
2026-05-04 14:04 25.80280 -80.30112 22 ft 13 kts 218°
2026-05-04 14:04 25.80194 -80.30138 19 ft 13 kts 180°
2026-05-04 14:05 25.80077 -80.30030 17 ft 13 kts 86°
2026-05-04 14:05 25.80077 -80.30025 17 ft 0 kts 86°
2026-05-04 14:06 25.80077 -80.30019 17 ft 8 kts 87°
2026-05-04 14:06 25.80090 -80.29751 18 ft 73 kts 87°
2026-05-04 14:06 25.80125 -80.28889 29 ft 152 kts 87°
2026-05-04 14:07 25.80178 -80.27479 235 ft 200 kts 87°
2026-05-04 14:07 25.80235 -80.25933 763 ft 201 kts 86°
2026-05-04 14:07 25.80288 -80.24367 1296 ft 206 kts 90°
2026-05-04 14:07 25.80099 -80.22788 1836 ft 208 kts 109°
2026-05-04 14:08 25.79377 -80.21397 2255 ft 213 kts 134°
2026-05-04 14:08 25.78362 -80.20123 2523 ft 234 kts 132°
2026-05-04 14:08 25.77228 -80.18655 2852 ft 264 kts 131°
2026-05-04 14:08 25.76150 -80.16951 3556 ft 274 kts 120°
2026-05-04 14:09 25.74405 -80.13118 5373 ft 283 kts 105°
2026-05-04 14:09 25.74304 -80.10932 6199 ft 289 kts 76°
2026-05-04 14:10 25.76415 -80.07177 7844 ft 295 kts 47°
2026-05-04 14:10 25.77789 -80.05455 8767 ft 296 kts 46°
2026-05-04 14:10 25.79176 -80.03735 9511 ft 302 kts 46°
2026-05-04 14:10 25.80570 -80.01989 10236 ft 311 kts 46°
2026-05-04 14:11 25.82045 -80.00155 10697 ft 331 kts 45°
2026-05-04 14:11 25.85350 -79.96009 11120 ft 385 kts 46°
2026-05-04 14:11 25.87149 -79.93725 11613 ft 399 kts 46°
2026-05-04 14:12 25.88998 -79.91369 12305 ft 409 kts 45°
2026-05-04 14:12 25.90879 -79.88967 13059 ft 415 kts 45°
2026-05-04 14:12 25.94726 -79.84055 14531 ft 428 kts 46°
2026-05-04 14:13 25.96697 -79.81541 15234 ft 435 kts 46°
2026-05-04 14:13 25.98699 -79.78986 15898 ft 441 kts 46°
2026-05-04 14:13 26.00728 -79.76397 16590 ft 447 kts 46°
2026-05-04 14:13 26.02784 -79.73771 17210 ft 453 kts 46°
2026-05-04 14:14 26.04870 -79.71104 17837 ft 459 kts 46°
2026-05-04 14:14 26.09114 -79.65675 19059 ft 469 kts 46°
2026-05-04 14:14 26.11251 -79.62907 19710 ft 473 kts 48°
2026-05-04 14:15 26.15157 -79.56902 20883 ft 484 kts 53°
2026-05-04 14:15 26.18961 -79.50658 22014 ft 491 kts 53°
2026-05-04 14:16 26.22877 -79.44411 23052 ft 499 kts 52°
2026-05-04 14:16 26.24890 -79.41239 23559 ft 502 kts 52°
2026-05-04 14:17 26.28952 -79.34833 24521 ft 509 kts 52°
2026-05-04 14:17 26.30998 -79.31596 24974 ft 513 kts 52°
2026-05-04 14:17 26.35148 -79.25038 25836 ft 521 kts 51°
2026-05-04 14:18 26.37433 -79.21932 26136 ft 519 kts 39°
2026-05-04 14:18 26.43498 -79.17809 26947 ft 507 kts 14°
2026-05-04 14:19 26.49141 -79.16207 27526 ft 505 kts
2026-05-04 14:19 26.53707 -79.15073 28028 ft 510 kts
2026-05-04 14:19 26.57176 -79.14199 28441 ft 512 kts
2026-05-04 14:19 26.60660 -79.13302 28836 ft 515 kts
2026-05-04 14:20 26.64166 -79.12383 29176 ft 519 kts
2026-05-04 14:20 26.66541 -79.11753 29402 ft 521 kts
2026-05-04 14:20 26.70037 -79.10819 29739 ft 524 kts
2026-05-04 14:21 26.77151 -79.08903 30519 ft 526 kts
2026-05-04 14:21 26.80711 -79.07943 30989 ft 525 kts
2026-05-04 14:21 26.84273 -79.06985 31384 ft 526 kts
2026-05-04 14:21 26.87829 -79.06029 31798 ft 526 kts
2026-05-04 14:22 26.91391 -79.05073 32204 ft 526 kts
2026-05-04 14:22 26.94954 -79.04115 32554 ft 527 kts
2026-05-04 14:22 26.98514 -79.03158 32928 ft 527 kts
2026-05-04 14:22 27.02076 -79.02201 33290 ft 527 kts
2026-05-04 14:23 27.09200 -79.00283 33979 ft 527 kts
2026-05-04 14:23 27.12768 -78.99321 34308 ft 527 kts
2026-05-04 14:23 27.16329 -78.98361 34660 ft 526 kts
2026-05-04 14:24 27.19891 -78.97400 34975 ft 526 kts
2026-05-04 14:24 27.27073 -78.95465 35063 ft 532 kts
2026-05-04 14:25 27.34184 -78.93535 35054 ft 526 kts
2026-05-04 14:25 27.44822 -78.90651 35063 ft 523 kts
2026-05-04 14:26 27.51899 -78.88734 35064 ft 523 kts
2026-05-04 14:26 27.58988 -78.86810 35068 ft 525 kts
2026-05-04 14:27 27.66104 -78.84876 35068 ft 526 kts
2026-05-04 14:27 27.73237 -78.82933 35072 ft 528 kts
2026-05-04 14:28 27.80391 -78.80979 35078 ft 529 kts
2026-05-04 14:28 27.87554 -78.79024 35070 ft 530 kts
2026-05-04 14:29 28.01926 -78.75088 35073 ft 532 kts
2026-05-04 14:30 28.09126 -78.73113 35069 ft 533 kts
2026-05-04 14:31 28.19874 -78.70159 35073 ft 531 kts
2026-05-04 14:32 28.34201 -78.66212 35073 ft 529 kts
2026-05-04 14:32 28.41353 -78.64238 35079 ft 528 kts
2026-05-04 14:33 28.48495 -78.62263 35071 ft 528 kts
2026-05-04 14:33 28.55636 -78.60289 35087 ft 528 kts
2026-05-04 14:34 28.62773 -78.58311 35096 ft 528 kts
2026-05-04 14:34 28.69871 -78.56340 35096 ft 528 kts
2026-05-04 14:35 28.77004 -78.54358 35105 ft 528 kts
2026-05-04 14:35 28.84140 -78.52373 35102 ft 528 kts
2026-05-04 14:36 28.91280 -78.50383 35100 ft 528 kts
2026-05-04 14:36 28.98420 -78.48390 35102 ft 528 kts
2026-05-04 14:37 29.05562 -78.46392 35101 ft 528 kts
2026-05-04 14:37 29.12698 -78.44396 35100 ft 528 kts
2026-05-04 14:38 29.19833 -78.42396 35100 ft 527 kts
2026-05-04 14:38 29.26907 -78.40409 35100 ft 527 kts
2026-05-04 14:39 29.34029 -78.38407 35102 ft 527 kts
2026-05-04 14:39 29.41151 -78.36401 35104 ft 528 kts
2026-05-04 14:40 29.51895 -78.34567 35105 ft 512 kts 353°
2026-05-04 14:40 29.58943 -78.34944 35117 ft 506 kts 347°
2026-05-04 14:41 29.65985 -78.35546 35115 ft 508 kts 347°
2026-05-04 14:42 29.80146 -78.36633 35113 ft 512 kts 348°
2026-05-04 14:42 29.87217 -78.37152 35113 ft 513 kts 348°
2026-05-04 14:43 29.94351 -78.37677 35112 ft 514 kts 348°
2026-05-04 14:43 30.01499 -78.38207 35117 ft 514 kts 348°
2026-05-04 14:44 30.08634 -78.38737 35116 ft 513 kts 348°
2026-05-04 14:44 30.15817 -78.38847 35106 ft 522 kts 357°
2026-05-04 14:45 30.23071 -78.37753 35108 ft 525 kts
2026-05-04 14:45 30.30237 -78.36571 35116 ft 522 kts
2026-05-04 14:46 30.37432 -78.35473 35121 ft 521 kts 360°
2026-05-04 14:46 30.44608 -78.34254 35118 ft 522 kts
2026-05-04 14:47 30.51741 -78.32603 35123 ft 523 kts
2026-05-04 14:47 30.58851 -78.30893 35140 ft 521 kts
2026-05-04 14:48 30.65951 -78.29227 35140 ft 519 kts
2026-05-04 14:48 30.73037 -78.27585 35149 ft 518 kts
2026-05-04 14:49 30.80102 -78.25946 35149 ft 517 kts
2026-05-04 14:49 30.87104 -78.24316 35148 ft 516 kts
2026-05-04 14:50 30.94150 -78.22673 35145 ft 515 kts
2026-05-04 14:50 31.01171 -78.21093 35150 ft 513 kts
2026-05-04 14:51 31.08186 -78.19545 35141 ft 512 kts
2026-05-04 14:51 31.15128 -78.18003 35139 ft 510 kts
2026-05-04 14:52 31.22096 -78.16445 35137 ft 509 kts
2026-05-04 14:52 31.29060 -78.14885 35139 ft 508 kts
2026-05-04 14:53 31.35997 -78.13329 35141 ft 507 kts
2026-05-04 14:53 31.42924 -78.11773 35141 ft 507 kts
2026-05-04 14:54 31.49867 -78.10452 35151 ft 504 kts
2026-05-04 14:54 31.56817 -78.09338 35144 ft 504 kts
2026-05-04 14:55 31.63773 -78.08205 35150 ft 504 kts
2026-05-04 14:55 31.70684 -78.07036 35147 ft 505 kts
2026-05-04 14:56 31.77686 -78.05833 35147 ft 505 kts
2026-05-04 14:56 31.84595 -78.04638 35149 ft 505 kts
2026-05-04 14:57 31.91563 -78.03435 35148 ft 506 kts
2026-05-04 14:57 31.98539 -78.02231 35150 ft 507 kts
2026-05-04 14:58 32.05517 -78.01025 35147 ft 507 kts
2026-05-04 14:58 32.12496 -77.99818 35148 ft 507 kts
2026-05-04 14:59 32.19479 -77.98606 35147 ft 507 kts
2026-05-04 15:00 32.29954 -77.96786 35135 ft 507 kts
2026-05-04 15:00 32.36932 -77.95571 35150 ft 507 kts
2026-05-04 15:01 32.47407 -77.93745 35150 ft 507 kts
2026-05-04 15:01 32.54363 -77.92529 35147 ft 508 kts
2026-05-04 15:02 32.61370 -77.91303 35148 ft 508 kts
2026-05-04 15:02 32.68352 -77.90078 35148 ft 508 kts
2026-05-04 15:03 32.75362 -77.88846 35143 ft 508 kts
2026-05-04 15:03 32.82340 -77.87619 35151 ft 508 kts
2026-05-04 15:04 32.89340 -77.86388 35149 ft 508 kts
2026-05-04 15:04 32.96337 -77.85152 35148 ft 507 kts
2026-05-04 15:05 33.03302 -77.83919 35146 ft 506 kts
2026-05-04 15:05 33.10216 -77.82696 35150 ft 504 kts
2026-05-04 15:06 33.17161 -77.81463 35147 ft 502 kts
2026-05-04 15:07 33.26358 -77.79829 35147 ft 500 kts
2026-05-04 15:07 33.33238 -77.78606 35148 ft 498 kts
2026-05-04 15:08 33.40088 -77.77385 35147 ft 496 kts
2026-05-04 15:08 33.46906 -77.76168 35148 ft 494 kts
2026-05-04 15:09 33.53658 -77.74961 35148 ft 493 kts
2026-05-04 15:09 33.60436 -77.73747 35148 ft 491 kts
2026-05-04 15:10 33.70568 -77.71907 35152 ft 490 kts
2026-05-04 15:11 33.80628 -77.69702 35146 ft 489 kts
2026-05-04 15:11 33.87273 -77.68213 35158 ft 487 kts
2026-05-04 15:12 33.93944 -77.66744 35146 ft 485 kts
2026-05-04 15:12 34.00575 -77.65293 35135 ft 484 kts
2026-05-04 15:13 34.07192 -77.63845 35137 ft 482 kts
2026-05-04 15:13 34.13792 -77.62397 35135 ft 481 kts
2026-05-04 15:14 34.20379 -77.60947 35139 ft 481 kts
2026-05-04 15:14 34.26928 -77.59505 35138 ft 482 kts
2026-05-04 15:15 34.33525 -77.58049 35135 ft 482 kts
2026-05-04 15:15 34.40137 -77.56586 35141 ft 483 kts
2026-05-04 15:16 34.50062 -77.54253 35139 ft 489 kts
2026-05-04 15:16 34.56523 -77.51352 35134 ft 502 kts 18°
2026-05-04 15:17 34.59659 -77.49485 35150 ft 503 kts 19°
2026-05-04 15:17 34.69052 -77.43730 35137 ft 504 kts 19°
2026-05-04 15:18 34.75348 -77.39922 35139 ft 505 kts 19°
2026-05-04 15:19 34.84752 -77.34279 35135 ft 505 kts 19°
2026-05-04 15:19 34.94207 -77.28593 35147 ft 505 kts 19°
2026-05-04 15:20 35.00507 -77.24793 35150 ft 505 kts 19°
2026-05-04 15:20 35.06805 -77.20985 35145 ft 505 kts 19°
2026-05-04 15:21 35.13105 -77.17171 35148 ft 505 kts 19°
2026-05-04 15:22 35.22522 -77.11461 35148 ft 506 kts 19°
2026-05-04 15:22 35.31985 -77.05707 35141 ft 506 kts 19°
2026-05-04 15:23 35.38298 -77.01857 35143 ft 507 kts 19°
2026-05-04 15:23 35.44621 -76.97996 35135 ft 507 kts 19°
2026-05-04 15:24 35.57251 -76.90263 35128 ft 507 kts 19°
2026-05-04 15:25 35.63533 -76.86427 35131 ft 507 kts 19°
2026-05-04 15:26 35.73028 -76.80653 35132 ft 508 kts 19°
2026-05-04 15:26 35.82524 -76.74850 35130 ft 508 kts 19°
2026-05-04 15:27 35.92021 -76.69016 35128 ft 509 kts 20°
2026-05-04 15:28 36.01350 -76.62746 35127 ft 512 kts 22°
2026-05-04 15:29 36.10690 -76.56349 35128 ft 511 kts 22°
2026-05-04 15:30 36.32555 -76.41504 35117 ft 513 kts 22°
2026-05-04 15:31 36.41939 -76.35104 35110 ft 513 kts 22°
2026-05-04 15:32 36.57514 -76.24439 35103 ft 511 kts 22°
2026-05-04 15:34 36.73060 -76.13746 35095 ft 510 kts 22°
2026-05-04 15:34 36.82354 -76.07330 35081 ft 509 kts 22°
2026-05-04 15:35 36.91610 -76.00922 35086 ft 508 kts 22°
2026-05-04 15:36 37.00899 -75.94472 35076 ft 510 kts 23°
2026-05-04 15:36 37.07138 -75.90216 35074 ft 510 kts 19°
2026-05-04 15:37 37.13708 -75.87082 35086 ft 502 kts
2026-05-04 15:37 37.20459 -75.84805 35078 ft 503 kts
2026-05-04 15:38 37.27234 -75.82536 35085 ft 504 kts
2026-05-04 15:38 37.33949 -75.80223 35073 ft 504 kts
2026-05-04 15:39 37.40714 -75.77861 35073 ft 502 kts
2026-05-04 15:40 37.50779 -75.74341 35068 ft 499 kts
2026-05-04 15:40 37.57445 -75.72007 35070 ft 497 kts
2026-05-04 15:41 37.64125 -75.69667 35077 ft 496 kts
2026-05-04 15:41 37.70778 -75.67330 35074 ft 496 kts
2026-05-04 15:42 37.77386 -75.65003 35069 ft 495 kts
2026-05-04 15:42 37.83951 -75.62122 35069 ft 503 kts 19°
2026-05-04 15:43 37.90048 -75.57738 35060 ft 511 kts 29°
2026-05-04 15:43 37.95907 -75.52527 35061 ft 513 kts 30°
2026-05-04 15:44 38.01737 -75.47387 35067 ft 513 kts 29°
2026-05-04 15:44 38.07664 -75.42298 35066 ft 512 kts 28°
2026-05-04 15:45 38.13645 -75.37463 35061 ft 512 kts 27°
2026-05-04 15:45 38.19657 -75.32576 35062 ft 513 kts 27°
2026-05-04 15:46 38.25962 -75.28586 35072 ft 502 kts 14°
2026-05-04 15:46 38.32659 -75.26374 35062 ft 493 kts
2026-05-04 15:47 38.39446 -75.25097 35065 ft 493 kts
2026-05-04 15:47 38.46246 -75.23736 35057 ft 495 kts
2026-05-04 15:48 38.53048 -75.22294 35058 ft 496 kts
2026-05-04 15:48 38.63264 -75.20104 35043 ft 496 kts
2026-05-04 15:49 38.69925 -75.17821 35045 ft 507 kts 18°
2026-05-04 15:49 38.76073 -75.13260 35040 ft 517 kts 32°
2026-05-04 15:50 38.81753 -75.07574 35035 ft 518 kts 34°
2026-05-04 15:50 38.87415 -75.01869 35043 ft 517 kts 33°
2026-05-04 15:51 38.93120 -74.96237 35054 ft 516 kts 33°
2026-05-04 15:51 38.95954 -74.93453 34931 ft 510 kts 33°
2026-05-04 15:51 38.98756 -74.90699 34555 ft 502 kts 33°
2026-05-04 15:52 39.01528 -74.87972 33794 ft 504 kts 33°
2026-05-04 15:52 39.04325 -74.85217 32927 ft 507 kts 33°
2026-05-04 15:52 39.07096 -74.82481 32089 ft 509 kts 33°
2026-05-04 15:52 39.09905 -74.79702 31244 ft 510 kts 33°
2026-05-04 15:53 39.12675 -74.76848 30424 ft 510 kts 36°
2026-05-04 15:53 39.15383 -74.73918 29723 ft 506 kts 36°
2026-05-04 15:53 39.18039 -74.70988 29198 ft 499 kts 37°
2026-05-04 15:53 39.20650 -74.68106 28715 ft 492 kts 36°
2026-05-04 15:54 39.23244 -74.65262 28121 ft 486 kts 36°
2026-05-04 15:54 39.25822 -74.62457 27491 ft 483 kts 36°
2026-05-04 15:54 39.28381 -74.59681 26884 ft 479 kts 36°
2026-05-04 15:54 39.30925 -74.56923 26294 ft 475 kts 36°
2026-05-04 15:55 39.33440 -74.54193 25726 ft 470 kts 36°
2026-05-04 15:55 39.35936 -74.51477 25155 ft 466 kts 36°
2026-05-04 15:55 39.38403 -74.48793 24579 ft 462 kts 36°
2026-05-04 15:55 39.40851 -74.46127 24023 ft 458 kts 36°
2026-05-04 15:56 39.43274 -74.43483 23469 ft 454 kts 36°
2026-05-04 15:56 39.45679 -74.40858 22887 ft 450 kts 36°
2026-05-04 15:56 39.48061 -74.38255 22322 ft 447 kts 36°
2026-05-04 15:56 39.49630 -74.36539 21952 ft 444 kts 36°
2026-05-04 15:57 39.51984 -74.33964 21418 ft 440 kts 36°
2026-05-04 15:57 39.54305 -74.31421 20894 ft 436 kts 36°
2026-05-04 15:57 39.56618 -74.28887 20342 ft 433 kts 36°
2026-05-04 15:57 39.58913 -74.26370 19798 ft 430 kts 36°
2026-05-04 15:58 39.61190 -74.23869 19277 ft 427 kts 36°
2026-05-04 15:58 39.63448 -74.21388 18758 ft 424 kts 36°
2026-05-04 15:58 39.65687 -74.18924 18259 ft 420 kts 36°
2026-05-04 15:58 39.67907 -74.16479 17756 ft 417 kts 36°
2026-05-04 15:59 39.70115 -74.14048 17256 ft 414 kts 36°
2026-05-04 15:59 39.72306 -74.11634 16747 ft 412 kts 36°
2026-05-04 15:59 39.74483 -74.09229 16226 ft 410 kts 36°
2026-05-04 15:59 39.76622 -74.06865 15746 ft 407 kts 37°
2026-05-04 16:00 39.78800 -74.04454 15238 ft 405 kts 37°
2026-05-04 16:00 39.80910 -74.02120 14747 ft 403 kts 37°
2026-05-04 16:00 39.83039 -73.99763 14272 ft 400 kts 37°
2026-05-04 16:00 39.85219 -73.97563 13759 ft 393 kts 29°
2026-05-04 16:01 39.87582 -73.95798 13249 ft 390 kts 24°
2026-05-04 16:01 39.89998 -73.94210 12760 ft 387 kts 22°
2026-05-04 16:01 39.92389 -73.92642 12362 ft 381 kts 23°
2026-05-04 16:01 39.94722 -73.91061 12007 ft 374 kts 24°
2026-05-04 16:02 39.96996 -73.89471 11663 ft 367 kts 25°
2026-05-04 16:02 39.99221 -73.87893 11328 ft 360 kts 25°
2026-05-04 16:02 40.03424 -73.84652 10980 ft 339 kts 33°
2026-05-04 16:03 40.05242 -73.82801 10953 ft 323 kts 36°
2026-05-04 16:03 40.06951 -73.80995 10831 ft 316 kts 36°
2026-05-04 16:03 40.08686 -73.79196 10793 ft 320 kts 35°
2026-05-04 16:03 40.10438 -73.77416 10711 ft 318 kts 34°
2026-05-04 16:04 40.12160 -73.75687 10643 ft 315 kts 34°
2026-05-04 16:04 40.15604 -73.72237 10539 ft 309 kts 34°
2026-05-04 16:04 40.17311 -73.70526 10475 ft 309 kts 34°
2026-05-04 16:05 40.19017 -73.68815 10428 ft 310 kts 34°
2026-05-04 16:05 40.20733 -73.67094 10371 ft 311 kts 34°
2026-05-04 16:05 40.24188 -73.63619 10256 ft 315 kts 34°
2026-05-04 16:06 40.25926 -73.61870 10199 ft 316 kts 34°
2026-05-04 16:06 40.30481 -73.57280 10054 ft 309 kts 34°
2026-05-04 16:07 40.32782 -73.55140 9935 ft 301 kts 21°
2026-05-04 16:07 40.38786 -73.53476 9470 ft 297 kts
2026-05-04 16:08 40.40826 -73.53001 9295 ft 298 kts
2026-05-04 16:08 40.46861 -73.51556 8776 ft 290 kts
2026-05-04 16:09 40.50820 -73.50593 8448 ft 289 kts
2026-05-04 16:09 40.54768 -73.49627 8115 ft 290 kts
2026-05-04 16:10 40.58709 -73.48662 7786 ft 290 kts
2026-05-04 16:11 40.64660 -73.47202 7278 ft 291 kts
2026-05-04 16:11 40.66640 -73.46717 7121 ft 289 kts
2026-05-04 16:12 40.72307 -73.43945 6462 ft 294 kts 23°
2026-05-04 16:12 40.77671 -73.43938 5638 ft 258 kts 315°
2026-05-04 16:13 40.79818 -73.47455 4988 ft 244 kts 295°
2026-05-04 16:13 40.81556 -73.51308 4297 ft 241 kts 293°
2026-05-04 16:14 40.81899 -73.55317 3807 ft 217 kts 253°
2026-05-04 16:14 40.80985 -73.58901 3511 ft 194 kts 249°
2026-05-04 16:15 40.79272 -73.63387 3105 ft 176 kts 219°
2026-05-04 16:16 40.77284 -73.65362 2885 ft 182 kts 218°
2026-05-04 16:16 40.74174 -73.67912 2210 ft 162 kts 212°
2026-05-04 16:17 40.72358 -73.69330 1775 ft 147 kts 210°
2026-05-04 16:18 40.69554 -73.71538 1171 ft 158 kts 209°
2026-05-04 16:18 40.68607 -73.72284 980 ft 156 kts 209°
2026-05-04 16:19 40.66134 -73.74227 414 ft 135 kts 208°
2026-05-04 16:19 40.64416 -73.73998 854 ft 135 kts 161°
2026-05-04 16:20 40.62474 -73.71663 3503 ft 168 kts 130°
2026-05-04 16:20 40.60717 -73.69714 3034 ft 176 kts 158°
2026-05-04 16:21 40.57383 -73.66932 3001 ft 198 kts 157°
2026-05-04 16:22 40.55021 -73.65009 3007 ft 202 kts 157°
2026-05-04 16:22 40.52518 -73.60399 3014 ft 229 kts 110°
2026-05-04 16:23 40.54027 -73.55059 2988 ft 234 kts 10°
2026-05-04 16:24 40.60188 -73.51909 3011 ft 239 kts 21°
2026-05-04 16:25 40.63137 -73.49951 3015 ft 236 kts 23°
2026-05-04 16:26 40.68976 -73.45892 2981 ft 238 kts 21°
2026-05-04 16:26 40.73435 -73.43085 2995 ft 240 kts 20°
2026-05-04 16:27 40.76356 -73.40896 3010 ft 242 kts 27°
2026-05-04 16:28 40.80533 -73.37447 2985 ft 237 kts 27°
2026-05-04 16:28 40.84801 -73.35819 2999 ft 200 kts 314°
2026-05-04 16:29 40.85916 -73.42047 3014 ft 174 kts 247°
2026-05-04 16:30 40.84509 -73.46624 2978 ft 180 kts 245°
2026-05-04 16:31 40.83550 -73.49662 2987 ft 178 kts 246°
2026-05-04 16:31 40.82170 -73.54195 2993 ft 178 kts 248°
2026-05-04 16:32 40.80956 -73.58850 2991 ft 178 kts 249°
2026-05-04 16:33 40.80152 -73.61911 2980 ft 176 kts 248°
2026-05-04 16:33 40.78443 -73.64171 2995 ft 182 kts 220°
2026-05-04 16:34 40.76475 -73.66070 2721 ft 168 kts 215°
2026-05-04 16:34 40.75499 -73.66862 2480 ft 161 kts 213°
2026-05-04 16:35 40.72563 -73.69173 1822 ft 163 kts 211°
2026-05-04 16:35 40.69611 -73.71494 1173 ft 156 kts 209°
2026-05-04 16:36 40.68735 -73.72184 990 ft 139 kts 209°
2026-05-04 16:36 40.67112 -73.73461 644 ft 138 kts 208°
2026-05-04 16:37 40.65497 -73.74767 301 ft 136 kts 212°
2026-05-04 16:37 40.64653 -73.75366 116 ft 139 kts 211°
2026-05-04 16:37 40.63279 -73.76467 26 ft 70 kts 210°
2026-05-04 16:38 40.62943 -73.76870 27 ft 23 kts 253°
2026-05-04 16:39 40.63198 -73.76949 30 ft 17 kts
2026-05-04 16:39 40.63431 -73.76933 25 ft 17 kts
2026-05-04 16:40 40.63665 -73.76917 25 ft 17 kts
2026-05-04 16:40 40.63896 -73.76896 25 ft 17 kts 21°
2026-05-04 16:41 40.64098 -73.76742 25 ft 17 kts 31°
2026-05-04 16:41 40.64312 -73.76745 24 ft 0 kts 301°
2026-05-04 16:42 40.64314 -73.76749 24 ft 3 kts 301°
2026-05-04 16:43 40.64430 -73.76965 28 ft 20 kts 327°
2026-05-04 16:43 40.64589 -73.76927 24 ft 0 kts 30°
2026-05-04 16:43 40.64607 -73.76913 29 ft 9 kts 30°
2026-05-04 16:44 40.64915 -73.76845 26 ft 13 kts 302°
2026-05-04 16:45 40.65023 -73.77081 31 ft 13 kts 301°
2026-05-04 16:46 40.65147 -73.77350 29 ft 13 kts 301°
2026-05-04 16:46 40.65238 -73.77552 30 ft 13 kts 301°
2026-05-04 16:47 40.65330 -73.77755 28 ft 13 kts 300°
2026-05-04 16:47 40.65420 -73.77959 25 ft 13 kts 300°
2026-05-04 16:48 40.65559 -73.78262 29 ft 13 kts 301°
2026-05-04 16:48 40.65605 -73.78362 27 ft 13 kts 301°
2026-05-04 16:49 40.65698 -73.78564 24 ft 13 kts 301°
2026-05-04 16:49 40.65821 -73.78706 29 ft 13 kts 11°
2026-05-04 16:50 40.65981 -73.78601 27 ft 13 kts 39°
2026-05-04 16:50 40.66088 -73.78479 26 ft 0 kts 31°